Rotterdam, Netherlands

10:14 AM CET on January 22, 2018 (GMT +0100)
Rotterdam

Weather History for EHRD - July, 2012

Change the Weather History Date:

Wednesday, July 11, 2012

  Actual Average Record
Temperature  
Mean Temperature 62 °F -  
Max Temperature 66 °F 69 °F 82 °F (1999)
Min Temperature 57 °F 54 °F 51 °F (2007)
Degree Days  
Heating Degree Days 4    
Growing Degree Days 12 (Base 50)    
Moisture  
Dew Point 54 °F    
Average Humidity 78    
Maximum Humidity 94    
Minimum Humidity 55    
Precipitation  
Precipitation 0.16 in - - ()
Sea Level Pressure  
Sea Level Pressure 29.82 in    
Wind  
Wind Speed 14 mph ()    
Max Wind Speed 20 mph    
Max Gust Speed 26 mph    
Visibility 6.5 miles    
Events Rain , Thunderstorm    
Averages and records for this station are not official NWS values.
T = Trace of Precipitation, MM = Missing Value Source: Averaged Metar Reports

Daily Weather History Graph

Daily Weather History Graph

Search for Another Location

Airport or City:

Trip Planner

Search our weather history database for the weather conditions in past years. The results will help you decide how hot, cold, wet, or windy it might be!

Date:

Astronomy

Jul. 11, 2012 Rise Set
Actual Time 5:36 AM CEST 9:58 PM CEST
Civil Twilight 4:49 AM CEST 10:44 PM CEST
Nautical Twilight 3:40 AM CEST 11:53 PM CEST
Astronomical Twilight 2:20 AM CEST 1:15 AM CEST
Moon 12:30 AM CEST (7/11) 2:55 PM CEST (7/11)
Length of Visible Light 17h 55m
Length of Day
16h 22m
Waning Gibbous, 47% of the Moon is Illuminated
Jul 11
Waning Gibbous
Jul 19
New
Jul 26
First Quarter
Aug 2
Full
Aug 9
Last Quarter

Hourly Weather History & Observations

Time (CEST) Temp. Dew Point Humidity Pressure Visibility Wind Dir Wind Speed Gust Speed Precip Events Conditions
12:25 AM 60.8 °F 51.8 °F 72% 29.83 in 6.2 mi SSW 13.8 mph - N/A   Scattered Clouds
12:55 AM 60.8 °F 51.8 °F 72% 29.83 in 6.2 mi SSW 13.8 mph - N/A   Overcast
1:25 AM 60.8 °F 51.8 °F 72% 29.83 in 6.2 mi SSW 16.1 mph - N/A   Mostly Cloudy
1:55 AM 59.0 °F 53.6 °F 82% 29.83 in 6.2 mi SSW 15.0 mph - N/A   Mostly Cloudy
2:00 AM 60 °F 53 °F 71% 29.83 in 28 mi SSW 13.4 mph - -   Overcast
2:25 AM 59.0 °F 53.6 °F 82% 29.80 in 6.2 mi SSW 15.0 mph - N/A   Mostly Cloudy
2:55 AM 57.2 °F 55.4 °F 94% 29.80 in 6.2 mi SSW 13.8 mph - N/A Rain Light Rain Showers
3:25 AM 59.0 °F 55.4 °F 88% 29.80 in 6.2 mi SSW 11.5 mph - N/A   Light Drizzle
3:55 AM 59.0 °F 55.4 °F 88% 29.80 in 6.2 mi SSW 13.8 mph - N/A Rain Rain
4:25 AM 59.0 °F 57.2 °F 94% 29.80 in 5.6 mi SSW 15.0 mph - N/A Rain Light Rain
4:55 AM 59.0 °F 57.2 °F 94% 29.80 in - SSW 17.3 mph - N/A Rain Rain
5:00 AM 58 °F 57 °F 94% 29.80 in 3 mi SSW 11.2 mph - - Rain Heavy Rain
5:25 AM 59.0 °F 57.2 °F 94% 29.77 in - SW 13.8 mph - N/A Rain Rain Showers
5:55 AM 59.0 °F 55.4 °F 88% 29.77 in 6.2 mi SSW 18.4 mph - N/A Rain Light Rain
6:25 AM 59.0 °F 57.2 °F 94% 29.77 in 6.2 mi SW 16.1 mph - N/A Rain Light Rain
6:55 AM 59.0 °F 55.4 °F 88% 29.77 in 6.2 mi SW 16.1 mph - N/A   Mostly Cloudy
7:25 AM 59.0 °F 55.4 °F 88% 29.77 in 6.2 mi SW 16.1 mph - N/A Rain Light Rain
7:55 AM 57.2 °F 55.4 °F 94% 29.80 in 6.2 mi WSW 15.0 mph - N/A Rain Light Rain
8:00 AM 58 °F 56 °F 90% 29.80 in 22 mi SW 11.2 mph - - Rain Rain
8:25 AM 57.2 °F 55.4 °F 94% 29.80 in - WSW 15.0 mph 26.5 mph N/A Rain Heavy Rain
8:55 AM 57.2 °F 53.6 °F 88% 29.80 in 6.2 mi West 10.4 mph - N/A   Scattered Clouds
9:25 AM 59.0 °F 57.2 °F 94% 29.80 in 6.2 mi WSW 10.4 mph - N/A   Mostly Cloudy
9:55 AM 59.0 °F 53.6 °F 82% 29.80 in 6.2 mi WSW 15.0 mph - N/A   Mostly Cloudy
10:25 AM 59.0 °F 51.8 °F 77% 29.83 in 6.2 mi SW 13.8 mph - N/A   Mostly Cloudy
10:55 AM 60.8 °F 51.8 °F 72% 29.83 in 6.2 mi WSW 19.6 mph - N/A   Mostly Cloudy
11:25 AM 60.8 °F 50.0 °F 68% 29.83 in 6.2 mi WSW 19.6 mph - N/A   Mostly Cloudy
11:55 AM 62.6 °F 51.8 °F 68% 29.83 in 6.2 mi WSW 17.3 mph - N/A   Partly Cloudy
12:25 PM 60.8 °F 50.0 °F 68% 29.83 in 6.2 mi WSW 15.0 mph - N/A   Overcast
12:55 PM 59.0 °F 55.4 °F 88% 29.83 in 6.2 mi WSW 10.4 mph - N/A Rain Light Rain
1:25 PM 64.4 °F 55.4 °F 73% 29.83 in 6.2 mi WSW 15.0 mph - N/A   Scattered Clouds
1:55 PM 66.2 °F 55.4 °F 68% 29.83 in 6.2 mi WSW 17.3 mph - N/A   Mostly Cloudy
2:00 PM 64 °F 53 °F 59% 29.85 in 22 mi WSW 15.7 mph - -   Partly Cloudy
2:25 PM 62.6 °F 53.6 °F 72% 29.83 in 6.2 mi WSW 17.3 mph - N/A   Scattered Clouds
2:55 PM 66.2 °F 53.6 °F 64% 29.83 in 6.2 mi WSW 16.1 mph - N/A   Scattered Clouds
3:25 PM 64.4 °F 53.6 °F 68% 29.83 in 6.2 mi West 16.1 mph - N/A   Scattered Clouds
3:55 PM 64.4 °F 50.0 °F 59% 29.83 in 6.2 mi West 16.1 mph - N/A   Scattered Clouds
4:25 PM 62.6 °F 51.8 °F 68% 29.83 in 6.2 mi West 13.8 mph - N/A   Mostly Cloudy
4:55 PM 66.2 °F 53.6 °F 64% 29.83 in 6.2 mi WSW 16.1 mph - N/A   Mostly Cloudy
5:00 PM 65 °F 53 °F 55% 29.84 in 22 mi WSW 15.7 mph - -   Scattered Clouds
5:25 PM 66.2 °F 53.6 °F 64% 29.83 in 6.2 mi WSW 16.1 mph - N/A Thunderstorm Thunderstorm
5:55 PM 64.4 °F 51.8 °F 64% 29.83 in 6.2 mi WSW 18.4 mph - N/A   Partly Cloudy
6:25 PM 62.6 °F 50.0 °F 63% 29.83 in 6.2 mi WSW 17.3 mph - N/A   Unknown
6:55 PM 62.6 °F 53.6 °F 72% 29.83 in 6.2 mi WSW 16.1 mph - N/A   Scattered Clouds
7:25 PM 62.6 °F 53.6 °F 72% 29.80 in 6.2 mi WSW 15.0 mph - N/A   Mostly Cloudy
8:00 PM 62 °F 53 °F 65% 29.82 in 13 mi WSW 17.9 mph - -   Partly Cloudy
8:25 PM 60.8 °F 53.6 °F 77% 29.80 in 6.2 mi WSW 16.1 mph - N/A   Scattered Clouds
8:55 PM 60.8 °F 51.8 °F 72% 29.83 in 6.2 mi WSW 15.0 mph - N/A   Unknown
9:55 PM 59.0 °F 53.6 °F 82% 29.83 in 6.2 mi WSW 12.7 mph - N/A Rain Rain
10:25 PM 59.0 °F 53.6 °F 82% 29.83 in 6.2 mi WSW 16.1 mph - N/A   Mostly Cloudy
10:55 PM 59.0 °F 53.6 °F 82% 29.83 in 6.2 mi WSW 13.8 mph - N/A   Partly Cloudy
11:00 PM 59 °F 54 °F 77% 29.84 in 19 mi WSW 13.4 mph - - Rain Rain
11:25 PM 59.0 °F 51.8 °F 77% 29.83 in 6.2 mi WSW 16.1 mph - N/A   Partly Cloudy
11:55 PM 59.0 °F 51.8 °F 77% 29.83 in 6.2 mi WSW 13.8 mph - N/A   Partly Cloudy